Weather History for Coffeyville, KS

Change the Weather History Date:

Tuesday, February 11, 2014

  Actual Average Record
Temperature  
Mean Temperature 19 °F -  
Max Temperature 28 °F 47 °F 66 °F (1999)
Min Temperature 10 °F 28 °F 7 °F (2011)
Degree Days  
Heating Degree Days 46    
Moisture  
Dew Point 6 °F    
Average Humidity 61    
Maximum Humidity 80    
Minimum Humidity 45    
Precipitation  
Precipitation 0.00 in - - ()
Sea Level Pressure  
Sea Level Pressure 30.42 in    
Wind  
Wind Speed 8 mph (NNE)    
Max Wind Speed 12 mph    
Max Gust Speed -    
Visibility 10 miles    
Events      
Averages and records for this station are not official NWS values.
T = Trace of Precipitation, MM = Missing Value Source: NWS Daily Summary

Daily Weather History Graph

Daily Weather History Graph

Search for Another Location

Airport:

Trip Planner

Search our weather history database for the weather conditions in past years. The results will help you decide how hot, cold, wet, or windy it might be!

Date:

Astronomy

Feb. 11, 2014 Rise Set
Actual Time 7:15 AM CST 5:58 PM CST
Civil Twilight 6:48 AM CST 6:24 PM CST
Nautical Twilight 6:18 AM CST 6:55 PM CST
Astronomical Twilight 5:47 AM CST 7:25 PM CST
Moon 3:21 PM CST (2/11) 4:51 AM CST (2/11)
Length of Visible Light 11h 36m
Length of Day
10h 42m
Waxing Gibbous, 91% of the Moon is Illuminated
Feb 11
Waxing Gibbous
Feb 14
Full
Feb 22
Last Quarter
Mar 1
New
Mar 8
First Quarter

Hourly Weather History & Observations

Time (CST) Temp. Windchill Dew Point Humidity Pressure Visibility Wind Dir Wind Speed Gust Speed Precip Events Conditions
12:52 AM 15.1 °F 2.5 °F 5.0 °F 64% 30.48 in 10.0 mi NNE 10.4 mph - N/A   Overcast
1:52 AM 14.0 °F 0.5 °F 3.9 °F 64% 30.48 in 10.0 mi NNE 11.5 mph - N/A   Overcast
2:52 AM 12.9 °F -0.9 °F 3.0 °F 65% 30.49 in 10.0 mi NNE 11.5 mph - N/A   Overcast
3:52 AM 12.9 °F -0.9 °F 1.9 °F 62% 30.48 in 10.0 mi NE 11.5 mph - N/A   Overcast
4:52 AM 12.0 °F -0.4 °F 1.9 °F 64% 30.49 in 10.0 mi NNE 9.2 mph - N/A   Scattered Clouds
5:52 AM 10.9 °F 1.4 °F 1.9 °F 67% 30.50 in 10.0 mi North 5.8 mph - N/A   Clear
6:52 AM 10.9 °F 2.9 °F 1.9 °F 67% 30.49 in 10.0 mi NNE 4.6 mph - N/A   Clear
7:52 AM 10.0 °F 0.4 °F 1.9 °F 70% 30.51 in 10.0 mi North 5.8 mph - N/A   Clear
8:52 AM 10.9 °F -0.8 °F 1.0 °F 64% 30.52 in 10.0 mi NNE 8.1 mph - N/A   Clear
9:52 AM 14.0 °F 2.0 °F 1.9 °F 59% 30.52 in 10.0 mi NNE 9.2 mph - N/A   Clear
10:52 AM 16.0 °F 4.4 °F 3.9 °F 59% 30.51 in 10.0 mi NE 9.2 mph - N/A   Clear
11:52 AM 19.9 °F 9.3 °F 5.0 °F 52% 30.48 in 10.0 mi NE 9.2 mph - N/A   Clear
12:52 PM 24.1 °F 14.4 °F 7.0 °F 48% 30.43 in 10.0 mi NE 9.2 mph - N/A   Clear
1:52 PM 26.1 °F 16.8 °F 8.1 °F 47% 30.39 in 10.0 mi NNE 9.2 mph - N/A   Clear
2:52 PM 28.0 °F 20.0 °F 9.0 °F 45% 30.35 in 10.0 mi ENE 8.1 mph - N/A   Clear
3:52 PM 28.0 °F 20.8 °F 9.0 °F 45% 30.34 in 10.0 mi NNE 6.9 mph - N/A   Clear
4:52 PM 28.0 °F 20.8 °F 10.0 °F 47% 30.32 in 10.0 mi NE 6.9 mph - N/A   Clear
5:52 PM 24.1 °F 17.0 °F 10.0 °F 55% 30.31 in 10.0 mi NE 5.8 mph - N/A   Clear
6:52 PM 19.0 °F 10.0 °F 9.0 °F 65% 30.32 in 10.0 mi NNE 6.9 mph - N/A   Clear
7:52 PM 18.0 °F 9.8 °F 9.0 °F 68% 30.34 in 10.0 mi North 5.8 mph - N/A   Clear
8:52 PM 19.0 °F - 8.1 °F 62% 30.35 in 10.0 mi Calm Calm - N/A   Clear
9:52 PM 15.1 °F 9.4 °F 7.0 °F 70% 30.32 in 10.0 mi North 3.5 mph - N/A   Clear
10:52 PM 14.0 °F - 8.1 °F 77% 30.31 in 10.0 mi Calm Calm - N/A   Clear
11:52 PM 12.0 °F - 7.0 °F 80% 30.29 in 10.0 mi Calm Calm - N/A   Clear